Tracking 21612 objects as of 20-Oct-2020
HD Live streaming from Space Station
objects crossing your sky now

COSMOS 1761

Track COSMOS 1761 now!
COSMOS 1761 is classified as:


NORAD ID: 16849
Int'l Code: 1986-050A
Perigee: 5,908.9 km
Apogee: 34,483.3 km
Inclination: 69.7 °
Period: 718.2 minutes
Semi major axis: 26567 km
RCS: 12.1379 m2 (large)
Launch date: July 5, 1986
Source: Commonwealth of Independent States (former USSR) (CIS)
Launch site: PLESETSK MISSILE AND SPACE COMPLEX (PKMTR)
aabbcc
Your satellite tracking list
Your tracking list is empty




NASA's NSSDC Master Catalog

Two Line Element Set (TLE):
1 16849U 86050A   20294.55057127 -.00000600 +00000-0 +00000-0 0  9993
2 16849 069.6898 151.7622 5377786 058.4916 061.9898 02.00487549251228
Source of the keplerian elements: AFSPC